OPS 9442 (DSCS 2-12)

导读

OPS 9442(DSCS 2-12)是美国于1978年12月14日发射的国防卫星通信卫星,属于第二代DSCS系列,运行于地球同步轨道。该卫星旨在拓展第一代DSCS的通信能力,为美国国防部及全球军事指挥体系提供不间断、高安全等级的语音与高速数据通信服务,是美国空军服役时间最长的战略通信卫星星座的重要组成部分,支撑美军全球指挥通信网络运行。

基本信息
目录编号:
11145
目录名称:
OPS 9442 (DSCS 2-12)
国际标识:
1978-113B
轨道中心:
EARTH
卫星名称:
OPS 9442 (DSCS 2-12)
卫星全名:
--
卫星状态:
在轨 (已飞行17379 天)
发射日期:
1978-12-14 UTC
国别 :
美国 (US)
星等 :
--
轨道信息
数据来源 国际轨道数据 AOE轨道数据
星历时间 2026-07-13T09:27:43+0800
1天前
查看轨道信息
2026-07-14T05:00:00+0800
8小时前
查看轨道信息
半长轴 42685.385km 42685.443km
偏心率 0.000506 0.0004963
轨道倾角 8.194° 8.192°
近地点辐角 187.835° 187.171°
升交点赤经 302.944° 302.941°
平近点角 176.711° 105.888°
近地点 36285.649km 36286.121km
远地点 36328.847km 36328.491km
周期 1462.778分钟 1462.781分钟
每日圈数 0.984428 0.984426
详细信息
使用方式:
暂无
2D轨道图
3D轨道图
轨道高度分析图
轨道倾角分析图
轨道综合分析图
查看轨道综合分析图